Year,Month,Day,Hour,Minute,Value (Times are PST for temperature in C)
2014,10,27,00,00,4.30
2014,10,27,00,01,4.30
2014,10,27,00,02,4.30
2014,10,27,00,03,4.20
2014,10,27,00,04,4.20
2014,10,27,00,05,4.20
2014,10,27,00,06,4.20
2014,10,27,00,07,4.20
2014,10,27,00,08,4.20
2014,10,27,00,09,4.20
2014,10,27,00,10,4.10
2014,10,27,00,11,4.10
2014,10,27,00,12,4.10
2014,10,27,00,13,4.10
2014,10,27,00,14,4.10
2014,10,27,00,15,4.10
2014,10,27,00,16,4.10
2014,10,27,00,17,4.10
2014,10,27,00,18,4.10
2014,10,27,00,19,4.10
2014,10,27,00,20,4.10
2014,10,27,00,21,4.10
2014,10,27,00,22,4.10
2014,10,27,00,23,4.10
2014,10,27,00,24,4.00
2014,10,27,00,25,4.00
2014,10,27,00,26,4.00
2014,10,27,00,27,3.90
2014,10,27,00,28,3.90
2014,10,27,00,29,3.90
2014,10,27,00,30,3.90
2014,10,27,00,31,4.00
2014,10,27,00,32,4.00
2014,10,27,00,33,4.00
2014,10,27,00,34,3.90
2014,10,27,00,35,3.90
2014,10,27,00,36,3.90
2014,10,27,00,37,3.90
2014,10,27,00,38,3.90
2014,10,27,00,39,3.90
2014,10,27,00,40,3.90
2014,10,27,00,41,3.90
2014,10,27,00,42,3.80
2014,10,27,00,43,3.80
2014,10,27,00,44,3.80
2014,10,27,00,45,3.80
2014,10,27,00,46,3.80
2014,10,27,00,47,3.70
2014,10,27,00,48,3.70
2014,10,27,00,49,3.70
2014,10,27,00,50,3.70
2014,10,27,00,51,3.70
2014,10,27,00,52,3.70
2014,10,27,00,53,3.70
2014,10,27,00,54,3.70
2014,10,27,00,55,3.70
2014,10,27,00,56,3.70
2014,10,27,00,57,3.80
2014,10,27,00,58,3.80
2014,10,27,00,59,3.70
2014,10,27,01,00,3.70
2014,10,27,01,01,3.70
2014,10,27,01,02,3.70
2014,10,27,01,03,3.70
2014,10,27,01,04,3.70
2014,10,27,01,05,3.70
2014,10,27,01,06,3.70
2014,10,27,01,07,3.70
2014,10,27,01,08,3.70
2014,10,27,01,09,3.70
2014,10,27,01,10,3.70
2014,10,27,01,11,3.70
2014,10,27,01,12,3.70
2014,10,27,01,13,3.70
2014,10,27,01,14,3.70
2014,10,27,01,15,3.70
2014,10,27,01,16,3.70
2014,10,27,01,17,3.70
2014,10,27,01,18,3.70
2014,10,27,01,19,3.70
2014,10,27,01,20,3.60
2014,10,27,01,21,3.60
2014,10,27,01,22,3.60
2014,10,27,01,23,3.60
2014,10,27,01,24,3.60
2014,10,27,01,25,3.50
2014,10,27,01,26,3.50
2014,10,27,01,27,3.50
2014,10,27,01,28,3.50
2014,10,27,01,29,3.60
2014,10,27,01,30,3.60
2014,10,27,01,31,3.60
2014,10,27,01,32,3.70
2014,10,27,01,33,3.60
2014,10,27,01,34,3.60
2014,10,27,01,35,3.60
2014,10,27,01,36,3.60
2014,10,27,01,37,3.60
2014,10,27,01,38,3.60
2014,10,27,01,39,3.50
2014,10,27,01,40,3.50
2014,10,27,01,41,3.50
2014,10,27,01,42,3.50
2014,10,27,01,43,3.50
2014,10,27,01,44,3.50
2014,10,27,01,45,3.40
2014,10,27,01,46,3.40
2014,10,27,01,47,3.40
2014,10,27,01,48,3.40
2014,10,27,01,49,3.50
2014,10,27,01,50,3.50
2014,10,27,01,51,3.50
2014,10,27,01,52,3.40
2014,10,27,01,53,3.40
2014,10,27,01,54,3.40
2014,10,27,01,55,3.40
2014,10,27,01,56,3.40
2014,10,27,01,57,3.40
2014,10,27,01,58,3.40
2014,10,27,01,59,3.40
2014,10,27,02,00,3.40
2014,10,27,02,01,3.40
2014,10,27,02,02,3.40
2014,10,27,02,03,3.40
2014,10,27,02,04,3.40
2014,10,27,02,05,3.40
2014,10,27,02,06,3.40
2014,10,27,02,07,3.40
2014,10,27,02,08,3.50
2014,10,27,02,09,3.50
2014,10,27,02,10,3.50
2014,10,27,02,11,3.50
2014,10,27,02,12,3.50
2014,10,27,02,13,3.50
2014,10,27,02,14,3.50
2014,10,27,02,15,3.50
2014,10,27,02,16,3.50
2014,10,27,02,17,3.40
2014,10,27,02,18,3.40
2014,10,27,02,19,3.40
2014,10,27,02,20,3.40
2014,10,27,02,21,3.40
2014,10,27,02,22,3.40
2014,10,27,02,23,3.40
2014,10,27,02,24,3.40
2014,10,27,02,25,3.40
2014,10,27,02,26,3.40
2014,10,27,02,27,3.40
2014,10,27,02,28,3.40
2014,10,27,02,29,3.40
2014,10,27,02,30,3.40
2014,10,27,02,31,3.50
2014,10,27,02,32,3.50
2014,10,27,02,33,3.50
2014,10,27,02,34,3.50
2014,10,27,02,35,3.50
2014,10,27,02,36,3.50
2014,10,27,02,37,3.40
2014,10,27,02,38,3.40
2014,10,27,02,39,3.40
2014,10,27,02,40,3.50
2014,10,27,02,41,3.50
2014,10,27,02,42,3.50
2014,10,27,02,43,3.50
2014,10,27,02,44,3.50
2014,10,27,02,45,3.50
2014,10,27,02,46,3.50
2014,10,27,02,47,3.50
2014,10,27,02,48,3.50
2014,10,27,02,49,3.50
2014,10,27,02,50,3.60
2014,10,27,02,51,3.60
2014,10,27,02,52,3.70
2014,10,27,02,53,3.70
2014,10,27,02,54,3.70
2014,10,27,02,55,3.70
2014,10,27,02,56,3.70
2014,10,27,02,57,3.70
2014,10,27,02,58,3.70
2014,10,27,02,59,3.70
2014,10,27,03,00,3.70
2014,10,27,03,01,3.80
2014,10,27,03,02,3.80
2014,10,27,03,03,3.80
2014,10,27,03,04,3.80
2014,10,27,03,05,3.80
2014,10,27,03,06,3.90
2014,10,27,03,07,3.90
2014,10,27,03,08,4.00
2014,10,27,03,09,4.00
2014,10,27,03,10,4.10
2014,10,27,03,11,4.10
2014,10,27,03,12,4.20
2014,10,27,03,13,4.20
2014,10,27,03,14,4.20
2014,10,27,03,15,4.30
2014,10,27,03,16,4.30
2014,10,27,03,17,4.30
2014,10,27,03,18,4.40
2014,10,27,03,19,4.40
2014,10,27,03,20,4.40
2014,10,27,03,21,4.40
2014,10,27,03,22,4.40
2014,10,27,03,23,4.50
2014,10,27,03,24,4.50
2014,10,27,03,25,4.60
2014,10,27,03,26,4.60
2014,10,27,03,27,4.60
2014,10,27,03,28,4.60
2014,10,27,03,29,4.70
2014,10,27,03,30,4.70
2014,10,27,03,31,4.70
2014,10,27,03,32,4.70
2014,10,27,03,33,4.70
2014,10,27,03,34,4.70
2014,10,27,03,35,4.70
2014,10,27,03,36,4.80
2014,10,27,03,37,4.80
2014,10,27,03,38,4.80
2014,10,27,03,39,4.90
2014,10,27,03,40,4.90
2014,10,27,03,41,4.90
2014,10,27,03,42,4.90
2014,10,27,03,43,4.90
2014,10,27,03,44,5.00
2014,10,27,03,45,5.00
2014,10,27,03,46,5.00
2014,10,27,03,47,5.00
2014,10,27,03,48,5.10
2014,10,27,03,49,5.10
2014,10,27,03,50,5.10
2014,10,27,03,51,5.10
2014,10,27,03,52,5.10
2014,10,27,03,53,5.20
2014,10,27,03,54,5.20
2014,10,27,03,55,5.20
2014,10,27,03,56,5.20
2014,10,27,03,57,5.20
2014,10,27,03,58,5.20
2014,10,27,03,59,5.20
2014,10,27,04,00,5.20
2014,10,27,04,01,5.30
2014,10,27,04,02,5.30
2014,10,27,04,03,5.30
2014,10,27,04,04,5.30
2014,10,27,04,05,5.30
2014,10,27,04,06,5.30
2014,10,27,04,07,5.30
2014,10,27,04,08,5.30
2014,10,27,04,09,5.30
2014,10,27,04,10,5.30
2014,10,27,04,11,5.30
2014,10,27,04,12,5.30
2014,10,27,04,13,5.30
2014,10,27,04,14,5.30
2014,10,27,04,15,5.30
2014,10,27,04,16,5.30
2014,10,27,04,17,5.40
2014,10,27,04,18,5.40
2014,10,27,04,19,5.40
2014,10,27,04,20,5.40
2014,10,27,04,21,5.40
2014,10,27,04,22,5.40
2014,10,27,04,23,5.40
2014,10,27,04,24,5.40
2014,10,27,04,25,5.40
2014,10,27,04,26,5.40
2014,10,27,04,27,5.40
2014,10,27,04,28,5.40
2014,10,27,04,29,5.50
2014,10,27,04,30,5.50
2014,10,27,04,31,5.50
2014,10,27,04,32,5.50
2014,10,27,04,33,5.50
2014,10,27,04,34,5.50
2014,10,27,04,35,5.50
2014,10,27,04,36,5.60
2014,10,27,04,37,5.60
2014,10,27,04,38,5.60
2014,10,27,04,39,5.60
2014,10,27,04,40,5.60
2014,10,27,04,41,5.60
2014,10,27,04,42,5.60
2014,10,27,04,43,5.60
2014,10,27,04,44,5.70
2014,10,27,04,45,5.70
2014,10,27,04,46,5.70
2014,10,27,04,47,5.70
2014,10,27,04,48,5.70
2014,10,27,04,49,5.70
2014,10,27,04,50,5.70
2014,10,27,04,51,5.70
2014,10,27,04,52,5.70
2014,10,27,04,53,5.80
2014,10,27,04,54,5.80
2014,10,27,04,55,5.80
2014,10,27,04,56,5.80
2014,10,27,04,57,5.80
2014,10,27,04,58,5.80
2014,10,27,04,59,5.80
2014,10,27,05,00,5.80
2014,10,27,05,01,5.80
2014,10,27,05,02,5.80
2014,10,27,05,03,5.80
2014,10,27,05,04,5.80
2014,10,27,05,05,5.80
2014,10,27,05,06,5.80
2014,10,27,05,07,5.80
2014,10,27,05,08,5.80
2014,10,27,05,09,5.80
2014,10,27,05,10,5.80
2014,10,27,05,11,5.80
2014,10,27,05,12,5.80
2014,10,27,05,13,5.80
2014,10,27,05,14,5.80
2014,10,27,05,15,5.80
2014,10,27,05,16,5.90
2014,10,27,05,17,5.90
2014,10,27,05,18,5.90
2014,10,27,05,19,5.90
2014,10,27,05,20,5.90
2014,10,27,05,21,5.90
2014,10,27,05,22,5.90
2014,10,27,05,23,5.90
2014,10,27,05,24,5.90
2014,10,27,05,25,5.90
2014,10,27,05,26,5.90
2014,10,27,05,27,5.90
2014,10,27,05,28,5.90
2014,10,27,05,29,6.00
2014,10,27,05,30,6.00
2014,10,27,05,31,6.00
2014,10,27,05,32,6.00
2014,10,27,05,33,6.00
2014,10,27,05,34,6.00
2014,10,27,05,35,6.00
2014,10,27,05,36,6.00
2014,10,27,05,37,6.10
2014,10,27,05,38,6.10
2014,10,27,05,39,6.10
2014,10,27,05,40,6.10
2014,10,27,05,41,6.10
2014,10,27,05,42,6.20
2014,10,27,05,43,6.20
2014,10,27,05,44,6.20
2014,10,27,05,45,6.20
2014,10,27,05,46,6.20
2014,10,27,05,47,6.20
2014,10,27,05,48,6.20
2014,10,27,05,49,6.20
2014,10,27,05,50,6.20
2014,10,27,05,51,6.20
2014,10,27,05,52,6.20
2014,10,27,05,53,6.20
2014,10,27,05,54,6.20
2014,10,27,05,55,6.20
2014,10,27,05,56,6.30
2014,10,27,05,57,6.30
2014,10,27,05,58,6.30
2014,10,27,05,59,6.30
2014,10,27,06,00,6.30
2014,10,27,06,01,6.30
2014,10,27,06,02,6.30
2014,10,27,06,03,6.30
2014,10,27,06,04,6.30
2014,10,27,06,05,6.30
2014,10,27,06,06,6.30
2014,10,27,06,07,6.30
2014,10,27,06,08,6.30
2014,10,27,06,09,6.30
2014,10,27,06,10,6.30
2014,10,27,06,11,6.30
2014,10,27,06,12,6.30
2014,10,27,06,13,6.30
2014,10,27,06,14,6.30
2014,10,27,06,15,6.30
2014,10,27,06,16,6.30
2014,10,27,06,17,6.30
2014,10,27,06,18,6.30
2014,10,27,06,19,6.30
2014,10,27,06,20,6.40
2014,10,27,06,21,6.40
2014,10,27,06,22,6.40
2014,10,27,06,23,6.40
2014,10,27,06,24,6.40
2014,10,27,06,25,6.40
2014,10,27,06,26,6.40
2014,10,27,06,27,6.40
2014,10,27,06,28,6.40
2014,10,27,06,29,6.40
2014,10,27,06,30,6.40
2014,10,27,06,31,6.40
2014,10,27,06,32,6.50
2014,10,27,06,33,6.50
2014,10,27,06,34,6.50
2014,10,27,06,35,6.50
2014,10,27,06,36,6.50
2014,10,27,06,37,6.50
2014,10,27,06,38,6.50
2014,10,27,06,39,6.50
2014,10,27,06,40,6.60
2014,10,27,06,41,6.60
2014,10,27,06,42,6.60
2014,10,27,06,43,6.60
2014,10,27,06,44,6.60
2014,10,27,06,45,6.60
2014,10,27,06,46,6.60
2014,10,27,06,47,6.60
2014,10,27,06,48,6.60
2014,10,27,06,49,6.60
2014,10,27,06,50,6.60
2014,10,27,06,51,6.60
2014,10,27,06,52,6.70
2014,10,27,06,53,6.70
2014,10,27,06,54,6.70
2014,10,27,06,55,6.70
2014,10,27,06,56,6.70
2014,10,27,06,57,6.70
2014,10,27,06,58,6.70
2014,10,27,06,59,6.70
2014,10,27,07,00,6.70
2014,10,27,07,01,6.70
2014,10,27,07,02,6.70
2014,10,27,07,03,6.70
2014,10,27,07,04,6.80
2014,10,27,07,05,6.80
2014,10,27,07,06,6.80
2014,10,27,07,07,6.80
2014,10,27,07,08,6.80
2014,10,27,07,09,6.80
2014,10,27,07,10,6.80
2014,10,27,07,11,6.80
2014,10,27,07,12,6.80
2014,10,27,07,13,6.80
2014,10,27,07,14,6.80
2014,10,27,07,15,6.80
2014,10,27,07,16,6.80
2014,10,27,07,17,6.80
2014,10,27,07,18,6.80
2014,10,27,07,19,6.80
2014,10,27,07,20,6.80
2014,10,27,07,21,6.80
2014,10,27,07,22,6.90
2014,10,27,07,23,6.80
2014,10,27,07,24,6.80
2014,10,27,07,25,6.90
2014,10,27,07,26,6.90
2014,10,27,07,27,6.90
2014,10,27,07,28,6.90
2014,10,27,07,29,6.90
2014,10,27,07,30,6.90
2014,10,27,07,31,6.90
2014,10,27,07,32,6.90
2014,10,27,07,33,6.90
2014,10,27,07,34,6.90
2014,10,27,07,35,6.90
2014,10,27,07,36,6.90
2014,10,27,07,37,6.90
2014,10,27,07,38,6.90
2014,10,27,07,39,6.90
2014,10,27,07,40,6.90
2014,10,27,07,41,6.90
2014,10,27,07,42,6.90
2014,10,27,07,43,6.90
2014,10,27,07,44,6.90
2014,10,27,07,45,6.90
2014,10,27,07,46,6.90
2014,10,27,07,47,6.90
2014,10,27,07,48,6.90
2014,10,27,07,49,6.90
2014,10,27,07,50,6.90
2014,10,27,07,51,6.90
2014,10,27,07,52,6.90
2014,10,27,07,53,6.90
2014,10,27,07,54,6.90
2014,10,27,07,55,6.90
2014,10,27,07,56,6.90
2014,10,27,07,57,6.90
2014,10,27,07,58,6.90
2014,10,27,07,59,6.90
2014,10,27,08,00,6.90
2014,10,27,08,01,6.90
2014,10,27,08,02,6.90
2014,10,27,08,03,6.90
2014,10,27,08,04,6.90
2014,10,27,08,05,6.90
2014,10,27,08,06,6.90
2014,10,27,08,07,6.90
2014,10,27,08,08,6.90
2014,10,27,08,09,6.90
2014,10,27,08,10,6.90
2014,10,27,08,11,6.90
2014,10,27,08,12,7.00
2014,10,27,08,13,6.90
2014,10,27,08,14,7.00
2014,10,27,08,15,7.00
2014,10,27,08,16,7.00
2014,10,27,08,17,7.00
2014,10,27,08,18,7.00
2014,10,27,08,19,7.00
2014,10,27,08,20,7.00
2014,10,27,08,21,7.00
2014,10,27,08,22,7.00
2014,10,27,08,23,7.00
2014,10,27,08,24,7.00
2014,10,27,08,25,7.00
2014,10,27,08,26,7.00
2014,10,27,08,27,7.00
2014,10,27,08,28,7.10
2014,10,27,08,29,7.10
2014,10,27,08,30,7.10
2014,10,27,08,31,7.10
2014,10,27,08,32,7.10
2014,10,27,08,33,7.10
2014,10,27,08,34,7.10
2014,10,27,08,35,7.10
2014,10,27,08,36,7.10
2014,10,27,08,37,7.20
2014,10,27,08,38,7.20
2014,10,27,08,39,7.20
2014,10,27,08,40,7.30
2014,10,27,08,41,7.40
2014,10,27,08,42,7.40
2014,10,27,08,43,7.40
2014,10,27,08,44,7.40
2014,10,27,08,45,7.40
2014,10,27,08,46,7.40
2014,10,27,08,47,7.50
2014,10,27,08,48,7.50
2014,10,27,08,49,7.50
2014,10,27,08,50,7.60
2014,10,27,08,51,7.60
2014,10,27,08,52,7.60
2014,10,27,08,53,7.70
2014,10,27,08,54,7.70
2014,10,27,08,55,7.70
2014,10,27,08,56,7.70
2014,10,27,08,57,7.80
2014,10,27,08,58,7.80
2014,10,27,08,59,7.80
2014,10,27,09,00,7.80
2014,10,27,09,01,7.90
2014,10,27,09,02,7.90
2014,10,27,09,03,7.90
2014,10,27,09,04,7.90
2014,10,27,09,05,7.90
2014,10,27,09,06,8.00
2014,10,27,09,07,8.00
2014,10,27,09,08,8.00
2014,10,27,09,09,8.00
2014,10,27,09,10,8.00
2014,10,27,09,11,8.10
2014,10,27,09,12,8.10
2014,10,27,09,13,8.10
2014,10,27,09,14,8.10
2014,10,27,09,15,8.10
2014,10,27,09,16,8.10
2014,10,27,09,17,8.10
2014,10,27,09,18,8.10
2014,10,27,09,19,8.10
2014,10,27,09,20,8.20
2014,10,27,09,21,8.20
2014,10,27,09,22,8.20
2014,10,27,09,23,8.20
2014,10,27,09,24,8.20
2014,10,27,09,25,8.20
2014,10,27,09,26,8.20
2014,10,27,09,27,8.20
2014,10,27,09,28,8.30
2014,10,27,09,29,8.30
2014,10,27,09,30,8.30
2014,10,27,09,31,8.30
2014,10,27,09,32,8.30
2014,10,27,09,33,8.30
2014,10,27,09,34,8.30
2014,10,27,09,35,8.30
2014,10,27,09,36,8.30
2014,10,27,09,37,8.40
2014,10,27,09,38,8.30
2014,10,27,09,39,8.30
2014,10,27,09,40,8.30
2014,10,27,09,41,8.30
2014,10,27,09,42,8.30
2014,10,27,09,43,8.30
2014,10,27,09,44,8.30
2014,10,27,09,45,8.30
2014,10,27,09,46,8.30
2014,10,27,09,47,8.30
